| time (UTC) | temp F | wind direction | speed knots | gust knots | rain 1hr in | rain 24hr in | rain mn in | humidity % | barometer mb |
| 20260507070328 | 51 | 292 | 5.2 | 9.6 | 0.00 | 0.21 | 0.00 | 83 | 1007.3 |
| 20260507065911 | 52 | 280 | 3.5 | 6.1 | 0.00 | 0.21 | 0.00 | 83 | 1007.0 |
| 20260507065413 | 52 | 304 | 1.7 | 4.3 | 0.00 | 0.21 | 0.00 | 84 | 1006.8 |
| 20260507064827 | 52 | 339 | 2.6 | 6.1 | 0.00 | 0.21 | 0.00 | 84 | 1007.2 |
| 20260507064325 | 52 | 272 | 3.5 | 6.1 | 0.00 | 0.21 | 0.00 | 84 | 1007.0 |
| 20260507063842 | 52 | 275 | 2.6 | 6.1 | 0.00 | 0.21 | 0.00 | 83 | 1006.7 |
| 20260507063319 | 52 | 312 | 2.6 | 7.8 | 0.00 | 0.21 | 0.00 | 83 | 1006.7 |
| 20260507062901 | 52 | 296 | 2.6 | 7.0 | 0.00 | 0.21 | 0.00 | 83 | 1006.7 |
| 20260507062403 | 53 | 310 | 1.7 | 4.3 | 0.00 | 0.21 | 0.00 | 83 | 1006.7 |
| 20260507061901 | 53 | 316 | 1.7 | 7.8 | 0.00 | 0.21 | 0.00 | 82 | 1006.7 |
| 20260507061358 | 53 | 305 | 3.5 | 7.8 | 0.00 | 0.21 | 0.00 | 82 | 1006.6 |
| 20260507060851 | 53 | 300 | 2.6 | 7.8 | 0.00 | 0.21 | 0.00 | 82 | 1006.8 |
| 20260507060323 | 53 | 301 | 4.3 | 7.8 | 0.00 | 0.21 | 0.00 | 82 | 1006.8 |
| 20260507055816 | 53 | 306 | 1.7 | 7.8 | 0.00 | 0.21 | 0.00 | 82 | 1006.8 |
| 20260507055333 | 53 | 296 | 2.6 | 7.8 | 0.00 | 0.21 | 0.00 | 82 | 1007.1 |
| 20260507054852 | 53 | 288 | 3.5 | 10.4 | 0.00 | 0.21 | 0.00 | 82 | 1007.2 |
| 20260507054414 | 53 | 313 | 3.5 | 8.7 | 0.00 | 0.21 | 0.00 | 82 | 1007.3 |
| 20260507053849 | 53 | 311 | 2.6 | 8.7 | 0.00 | 0.21 | 0.00 | 81 | 1007.2 |
| 20260507053323 | 53 | 296 | 4.3 | 8.7 | 0.00 | 0.21 | 0.00 | 82 | 1007.0 |
| 20260507052820 | 53 | 295 | 5.2 | 8.7 | 0.00 | 0.21 | 0.00 | 82 | 1007.2 |
| 20260507052318 | 53 | 261 | 2.6 | 7.8 | 0.00 | 0.21 | 0.00 | 82 | 1007.4 |
| 20260507051834 | 53 | 275 | 4.3 | 7.8 | 0.00 | 0.21 | 0.00 | 82 | 1007.3 |
| 20260507051352 | 53 | 336 | 2.6 | 8.7 | 0.00 | 0.21 | 0.00 | 82 | 1007.1 |
| 20260507050828 | 53 | 321 | 1.7 | 8.7 | 0.00 | 0.21 | 0.00 | 82 | 1006.9 |
| 20260507050325 | 53 | 313 | 3.5 | 7.0 | 0.00 | 0.21 | 0.00 | 83 | 1006.8 |
| 20260507045820 | 53 | 320 | 3.5 | 10.4 | 0.00 | 0.21 | 0.00 | 83 | 1007.1 |
| 20260507045338 | 54 | 310 | 3.5 | 10.4 | 0.00 | 0.21 | 0.00 | 83 | 1006.9 |
| 20260507044834 | 54 | 303 | 4.3 | 7.8 | 0.00 | 0.21 | 0.00 | 83 | 1006.9 |
| 20260507044417 | 54 | 282 | 3.5 | 9.6 | 0.00 | 0.21 | 0.00 | 84 | 1006.8 |
| 20260507043851 | 54 | 301 | 5.2 | 11.3 | 0.00 | 0.21 | 0.00 | 84 | 1006.8 |
| 20260507043345 | 54 | 312 | 4.3 | 11.3 | 0.00 | 0.21 | 0.00 | 85 | 1007.0 |
| 20260507042841 | 54 | 286 | 5.2 | 10.4 | 0.00 | 0.21 | 0.00 | 85 | 1007.0 |
| 20260507042318 | 55 | 267 | 4.3 | 9.6 | 0.00 | 0.21 | 0.00 | 86 | 1007.3 |
| 20260507041901 | 55 | 315 | 5.2 | 9.6 | 0.00 | 0.21 | 0.00 | 86 | 1007.2 |
| 20260507041358 | 55 | 290 | 4.3 | 7.8 | 0.00 | 0.21 | 0.00 | 87 | 1007.1 |
| 20260507040901 | 55 | 307 | 3.5 | 7.0 | 0.00 | 0.21 | 0.00 | 87 | 1006.8 |
| 20260507040422 | 55 | 325 | 2.6 | 10.4 | 0.00 | 0.21 | 0.00 | 87 | 1006.7 |
| 20260507035917 | 56 | 294 | 3.5 | 10.4 | 0.00 | 0.21 | 0.00 | 88 | 1006.6 |
| 20260507035333 | 56 | 293 | 3.5 | 9.6 | 0.00 | 0.21 | 0.21 | 88 | 1006.6 |
| 20260507034911 | 57 | 309 | 5.2 | 9.6 | 0.00 | 0.21 | 0.21 | 88 | 1006.5 |
| 20260507034414 | 57 | 270 | 3.5 | 9.6 | 0.00 | 0.21 | 0.21 | 89 | 1006.3 |
| 20260507033828 | 58 | 301 | 3.5 | 8.7 | 0.00 | 0.21 | 0.21 | 89 | 1006.3 |
| 20260507033413 | 58 | 318 | 2.6 | 7.0 | 0.00 | 0.21 | 0.21 | 89 | 1006.2 |
| 20260507032829 | 58 | 300 | 2.6 | 11.3 | 0.00 | 0.21 | 0.21 | 89 | 1006.1 |
| 20260507032327 | 58 | 302 | 6.1 | 17.4 | 0.00 | 0.21 | 0.21 | 89 | 1006.2 |
| 20260507031909 | 58 | 305 | 7.0 | 17.4 | 0.00 | 0.21 | 0.21 | 89 | 1006.1 |
| 20260507031324 | 59 | 319 | 7.8 | 12.2 | 0.00 | 0.21 | 0.21 | 89 | 1006.2 |
| 20260507030841 | 60 | 325 | 3.5 | 7.8 | 0.00 | 0.21 | 0.21 | 90 | 1005.9 |
| 20260507030338 | 60 | 253 | 1.7 | 7.8 | 0.00 | 0.21 | 0.21 | 90 | 1005.7 |
| 20260507025832 | 60 | 226 | 2.6 | 7.0 | 0.00 | 0.21 | 0.21 | 90 | 1005.7 |
| 20260507025329 | 60 | 195 | 2.6 | 7.0 | 0.00 | 0.21 | 0.21 | 90 | 1005.7 |
| 20260507024828 | 60 | 185 | 1.7 | 6.1 | 0.00 | 0.21 | 0.21 | 90 | 1005.7 |
| 20260507024345 | 60 | 262 | 1.7 | 7.0 | 0.00 | 0.21 | 0.21 | 90 | 1005.7 |
| 20260507023821 | 60 | 174 | 2.6 | 7.0 | 0.00 | 0.21 | 0.21 | 90 | 1005.7 |
| 20260507023405 | 60 | 211 | 2.6 | 7.8 | 0.00 | 0.21 | 0.21 | 90 | 1005.6 |
| 20260507022822 | 60 | 186 | 4.3 | 7.8 | 0.00 | 0.21 | 0.21 | 90 | 1005.5 |
| 20260507022335 | 60 | 173 | 2.6 | 7.0 | 0.00 | 0.21 | 0.21 | 90 | 1005.5 |
| 20260507021853 | 60 | 188 | 2.6 | 7.8 | 0.00 | 0.21 | 0.21 | 90 | 1005.7 |
| 20260507021330 | 60 | 195 | 4.3 | 7.8 | 0.00 | 0.21 | 0.21 | 90 | 1005.5 |
| 20260507020847 | 60 | 217 | 5.2 | 7.8 | 0.00 | 0.21 | 0.21 | 90 | 1005.7 |
| 20260507020341 | 60 | 170 | 2.6 | 7.0 | 0.00 | 0.21 | 0.21 | 90 | 1005.7 |
| 20260507015817 | 60 | 192 | 4.3 | 8.7 | 0.00 | 0.21 | 0.21 | 90 | 1005.7 |
| 20260507015357 | 60 | 271 | 3.5 | 8.7 | 0.01 | 0.21 | 0.21 | 90 | 1005.8 |
| 20260507014853 | 60 | 253 | 2.6 | 7.0 | 0.01 | 0.21 | 0.21 | 90 | 1006.0 |
| 20260507014352 | 60 | 182 | 2.6 | 8.7 | 0.01 | 0.21 | 0.21 | 90 | 1005.9 |
| 20260507013849 | 60 | 206 | 3.5 | 6.1 | 0.01 | 0.21 | 0.21 | 90 | 1005.9 |
| 20260507013325 | 60 | 172 | 4.3 | 7.8 | 0.01 | 0.21 | 0.21 | 90 | 1005.9 |
| 20260507012823 | 60 | 161 | 2.6 | 7.0 | 0.01 | 0.21 | 0.21 | 90 | 1005.9 |
| 20260507012339 | 60 | 190 | 3.5 | 7.0 | 0.01 | 0.21 | 0.21 | 90 | 1005.9 |
| 20260507011857 | 60 | 233 | 2.6 | 7.8 | 0.01 | 0.21 | 0.21 | 90 | 1006.0 |
| 20260507011332 | 60 | 209 | 3.5 | 8.7 | 0.01 | 0.21 | 0.21 | 90 | 1005.9 |
| 20260507010829 | 60 | 197 | 5.2 | 10.4 | 0.01 | 0.21 | 0.21 | 90 | 1006.1 |
| 20260507010322 | 60 | 177 | 5.2 | 8.7 | 0.01 | 0.21 | 0.21 | 90 | 1006.0 |
| 20260507005819 | 60 | 192 | 5.2 | 8.7 | 0.01 | 0.21 | 0.21 | 90 | 1006.0 |
| 20260507005317 | 60 | 176 | 2.6 | 8.7 | 0.00 | 0.20 | 0.20 | 90 | 1006.0 |
| 20260507004833 | 60 | 232 | 4.3 | 7.0 | 0.00 | 0.20 | 0.20 | 90 | 1005.8 |
| 20260507004330 | 60 | 195 | 3.5 | 7.8 | 0.00 | 0.20 | 0.20 | 90 | 1005.9 |
| 20260507003827 | 60 | 223 | 3.5 | 8.7 | 0.00 | 0.20 | 0.20 | 90 | 1005.9 |
| 20260507003324 | 60 | 165 | 3.5 | 9.6 | 0.01 | 0.20 | 0.20 | 90 | 1005.9 |
| 20260507002822 | 60 | 167 | 4.3 | 8.7 | 0.02 | 0.20 | 0.20 | 90 | 1005.8 |
| 20260507002319 | 60 | 195 | 4.3 | 8.7 | 0.03 | 0.20 | 0.20 | 90 | 1005.7 |
| 20260507001839 | 60 | 207 | 4.3 | 8.7 | 0.03 | 0.20 | 0.20 | 90 | 1005.7 |
| 20260507001358 | 60 | 197 | 5.2 | 8.7 | 0.03 | 0.20 | 0.20 | 90 | 1005.8 |
| 20260507000901 | 60 | 193 | 5.2 | 8.7 | 0.03 | 0.20 | 0.20 | 90 | 1005.7 |
| 20260507000335 | 60 | 178 | 5.2 | 8.7 | 0.04 | 0.20 | 0.20 | 90 | 1005.8 |
| 20260506235831 | 60 | 191 | 4.3 | 10.4 | 0.04 | 0.20 | 0.20 | 90 | 1005.8 |
| 20260506235417 | 60 | 177 | 4.3 | 10.4 | 0.04 | 0.20 | 0.20 | 90 | 1005.6 |
| 20260506234831 | 60 | 177 | 4.3 | 7.8 | 0.04 | 0.20 | 0.20 | 90 | 1005.7 |
| 20260506234348 | 60 | 209 | 4.3 | 7.8 | 0.04 | 0.20 | 0.20 | 90 | 1005.6 |
| 20260506233846 | 60 | 190 | 5.2 | 9.6 | 0.05 | 0.20 | 0.20 | 90 | 1005.8 |
| 20260506233321 | 60 | 157 | 6.1 | 9.6 | 0.04 | 0.19 | 0.19 | 90 | 1005.7 |
| 20260506232905 | 60 | 161 | 4.3 | 13.0 | 0.03 | 0.18 | 0.18 | 90 | 1005.7 |
| 20260506232318 | 60 | 191 | 7.0 | 13.0 | 0.02 | 0.17 | 0.17 | 90 | 1005.7 |
| 20260506231901 | 60 | 170 | 7.8 | 9.6 | 0.02 | 0.17 | 0.17 | 90 | 1005.8 |
| 20260506231419 | 60 | 129 | 7.0 | 8.7 | 0.03 | 0.17 | 0.17 | 90 | 1005.8 |
| 20260506230854 | 60 | 176 | 6.1 | 8.7 | 0.03 | 0.17 | 0.17 | 90 | 1006.0 |
| 20260506230327 | 60 | 185 | 5.2 | 9.6 | 0.02 | 0.16 | 0.16 | 90 | 1005.9 |
| 20260506225844 | 60 | 170 | 4.3 | 9.6 | 0.03 | 0.16 | 0.16 | 89 | 1005.9 |
| 20260506225408 | 60 | 180 | 5.2 | 9.6 | 0.03 | 0.16 | 0.16 | 90 | 1005.8 |
| 20260506224840 | 60 | 176 | 6.1 | 8.7 | 0.03 | 0.16 | 0.16 | 90 | 1006.0 |
| 20260506224316 | 61 | 168 | 6.1 | 9.6 | 0.03 | 0.16 | 0.16 | 89 | 1006.0 |
| 20260506223833 | 61 | 188 | 3.5 | 10.4 | 0.02 | 0.15 | 0.15 | 89 | 1006.0 |
| 20260506223350 | 61 | 200 | 6.1 | 10.4 | 0.02 | 0.15 | 0.15 | 89 | 1006.0 |
| 20260506222828 | 61 | 174 | 4.3 | 8.7 | 0.03 | 0.15 | 0.15 | 89 | 1006.1 |
| 20260506222326 | 61 | 146 | 4.3 | 8.7 | 0.03 | 0.15 | 0.15 | 89 | 1006.0 |
| 20260506221910 | 61 | 186 | 5.2 | 7.8 | 0.03 | 0.15 | 0.15 | 89 | 1006.3 |
| 20260506221325 | 61 | 187 | 4.3 | 10.4 | 0.03 | 0.14 | 0.14 | 89 | 1006.3 |
| 20260506220904 | 61 | 157 | 4.3 | 10.4 | 0.03 | 0.14 | 0.14 | 89 | 1006.3 |
| 20260506220318 | 61 | 132 | 5.2 | 8.7 | 0.03 | 0.14 | 0.14 | 89 | 1006.4 |
| 20260506215834 | 61 | 176 | 4.3 | 8.7 | 0.04 | 0.14 | 0.14 | 89 | 1006.3 |
| 20260506215330 | 61 | 190 | 5.2 | 12.2 | 0.03 | 0.13 | 0.13 | 88 | 1006.4 |
| 20260506214848 | 61 | 178 | 7.0 | 12.2 | 0.03 | 0.13 | 0.13 | 88 | 1006.4 |
| 20260506214344 | 61 | 182 | 7.0 | 11.3 | 0.04 | 0.13 | 0.13 | 88 | 1006.4 |
| 20260506213839 | 62 | 159 | 4.3 | 6.1 | 0.04 | 0.13 | 0.13 | 88 | 1006.5 |
| 20260506213358 | 62 | 195 | 4.3 | 7.0 | 0.05 | 0.13 | 0.13 | 88 | 1006.5 |
| 20260506212834 | 62 | 170 | 4.3 | 7.0 | 0.04 | 0.12 | 0.12 | 88 | 1006.6 |
| 20260506212332 | 62 | 171 | 5.2 | 8.7 | 0.04 | 0.12 | 0.12 | 88 | 1006.7 |
| 20260506211830 | 62 | 173 | 5.2 | 7.8 | 0.05 | 0.12 | 0.12 | 87 | 1006.8 |
| 20260506211348 | 62 | 181 | 5.2 | 8.7 | 0.05 | 0.11 | 0.11 | 87 | 1006.9 |
| 20260506210822 | 62 | 147 | 4.3 | 9.6 | 0.07 | 0.11 | 0.11 | 87 | 1006.9 |
| 20260506210318 | 62 | 159 | 5.2 | 9.6 | 0.07 | 0.11 | 0.11 | 87 | 1007.0 |
| 20260506205834 | 62 | 178 | 6.1 | 9.6 | 0.06 | 0.10 | 0.10 | 87 | 1007.0 |
| 20260506205351 | 62 | 181 | 4.3 | 7.8 | 0.06 | 0.10 | 0.10 | 86 | 1006.9 |
| 20260506204827 | 63 | 144 | 4.3 | 8.7 | 0.06 | 0.10 | 0.10 | 86 | 1007.0 |
| 20260506204344 | 63 | 189 | 7.0 | 12.2 | 0.06 | 0.09 | 0.09 | 86 | 1007.0 |
| 20260506203842 | 63 | 178 | 5.2 | 10.4 | 0.06 | 0.09 | 0.09 | 86 | 1006.9 |
| 20260506203338 | 63 | 174 | 6.1 | 10.4 | 0.06 | 0.08 | 0.08 | 85 | 1007.0 |
| 20260506202829 | 63 | 213 | 5.2 | 10.4 | 0.06 | 0.08 | 0.08 | 85 | 1006.9 |
| 20260506202327 | 63 | 246 | 3.5 | 10.4 | 0.06 | 0.07 | 0.07 | 85 | 1006.9 |
| 20260506201824 | 63 | 201 | 4.3 | 12.2 | 0.06 | 0.07 | 0.07 | 84 | 1006.8 |
| 20260506201322 | 63 | 174 | 5.2 | 12.2 | 0.06 | 0.06 | 0.06 | 84 | 1006.9 |
| 20260506200905 | 64 | 180 | 5.2 | 7.0 | 0.04 | 0.04 | 0.04 | 84 | 1006.8 |
| 20260506200318 | 64 | 182 | 1.7 | 6.1 | 0.04 | 0.04 | 0.04 | 83 | 1006.9 |
| 20260506195815 | 64 | 167 | 3.5 | 8.7 | 0.04 | 0.04 | 0.04 | 83 | 1006.6 |
| 20260506195333 | 64 | 194 | 3.5 | 8.7 | 0.04 | 0.04 | 0.04 | 83 | 1006.6 |
| 20260506194828 | 64 | 182 | 3.5 | 9.6 | 0.04 | 0.04 | 0.04 | 83 | 1006.8 |
| 20260506194347 | 64 | 178 | 3.5 | 9.6 | 0.03 | 0.03 | 0.03 | 83 | 1006.8 |
| 20260506193821 | 65 | 149 | 2.6 | 6.1 | 0.03 | 0.03 | 0.03 | 83 | 1006.7 |
| 20260506193407 | 65 | 185 | 2.6 | 3.5 | 0.02 | 0.02 | 0.02 | 82 | 1006.7 |
| 20260506192821 | 65 | 261 | 0.9 | 2.6 | 0.02 | 0.02 | 0.02 | 81 | 1007.1 |
| 20260506192340 | 66 | 263 | 0.0 | 2.6 | 0.01 | 0.01 | 0.01 | 81 | 1007.0 |
| 20260506191836 | 66 | 263 | 0.0 | 2.6 | 0.01 | 0.01 | 0.01 | 79 | 1007.1 |
| 20260506191354 | 67 | 263 | 0.9 | 2.6 | 0.00 | 0.00 | 0.00 | 76 | 1006.9 |
| 20260506190829 | 68 | 262 | 1.7 | 5.2 | 0.00 | 0.00 | 0.00 | 73 | 1007.3 |
| 20260506190344 | 68 | 303 | 2.6 | 5.2 | 0.00 | 0.00 | 0.00 | 71 | 1007.0 |
| 20260506185819 | 69 | 320 | 1.7 | 4.3 | 0.00 | 0.00 | 0.00 | 69 | 1006.8 |
| 20260506185336 | 69 | 212 | 0.9 | 6.1 | 0.00 | 0.00 | 0.00 | 68 | 1007.0 |
| 20260506184915 | 69 | 189 | 1.7 | 6.1 | 0.00 | 0.00 | 0.00 | 67 | 1006.9 |
| 20260506184352 | 69 | 182 | 3.5 | 7.0 | 0.00 | 0.00 | 0.00 | 67 | 1006.9 |
| 20260506183829 | 70 | 181 | 4.3 | 10.4 | 0.00 | 0.00 | 0.00 | 65 | 1007.0 |
| 20260506183325 | 70 | 187 | 5.2 | 14.8 | 0.00 | 0.00 | 0.00 | 63 | 1006.9 |
| 20260506182843 | 70 | 186 | 8.7 | 14.8 | 0.00 | 0.00 | 0.00 | 64 | 1006.8 |
| 20260506182339 | 71 | 170 | 7.8 | 15.6 | 0.00 | 0.00 | 0.00 | 63 | 1006.9 |
| 20260506181904 | 71 | 162 | 4.3 | 11.3 | 0.00 | 0.00 | 0.00 | 62 | 1006.8 |
| 20260506181400 | 72 | 213 | 5.2 | 10.4 | 0.00 | 0.00 | 0.00 | 60 | 1006.8 |
| 20260506180836 | 72 | 172 | 5.2 | 10.4 | 0.00 | 0.00 | 0.00 | 60 | 1006.9 |
| 20260506180353 | 73 | 295 | 4.3 | 13.0 | 0.00 | 0.00 | 0.00 | 59 | 1006.9 |
| 20260506175828 | 73 | 199 | 7.0 | 13.9 | 0.00 | 0.00 | 0.00 | 60 | 1007.0 |
| 20260506175345 | 73 | 178 | 7.8 | 17.4 | 0.00 | 0.00 | 0.00 | 58 | 1006.9 |
| 20260506174821 | 73 | 177 | 7.8 | 17.4 | 0.00 | 0.00 | 0.00 | 58 | 1006.9 |
| 20260506174337 | 73 | 228 | 6.1 | 12.2 | 0.00 | 0.00 | 0.00 | 58 | 1007.0 |
| 20260506173833 | 73 | 134 | 8.7 | 14.8 | 0.00 | 0.00 | 0.00 | 57 | 1006.9 |
| 20260506173329 | 74 | 145 | 7.8 | 14.8 | 0.00 | 0.00 | 0.00 | 58 | 1006.8 |
| 20260506172828 | 74 | 219 | 3.5 | 12.2 | 0.00 | 0.00 | 0.00 | 56 | 1006.9 |
| 20260506172345 | 73 | 160 | 7.0 | 12.2 | 0.00 | 0.00 | 0.00 | 57 | 1007.1 |
| 20260506171820 | 73 | 201 | 7.8 | 15.6 | 0.00 | 0.00 | 0.00 | 57 | 1007.2 |
| 20260506171318 | 73 | 175 | 4.3 | 18.2 | 0.00 | 0.00 | 0.00 | 57 | 1007.3 |
| 20260506170918 | 73 | 190 | 7.0 | 18.2 | 0.00 | 0.00 | 0.00 | 58 | 1007.3 |
| 20260506170352 | 73 | 194 | 6.1 | 15.6 | 0.00 | 0.00 | 0.00 | 58 | 1007.3 |
| 20260506165848 | 72 | 206 | 5.2 | 15.6 | 0.00 | 0.00 | 0.00 | 59 | 1007.4 |
| 20260506165345 | 72 | 151 | 7.0 | 13.0 | 0.00 | 0.00 | 0.00 | 60 | 1007.5 |
| 20260506164820 | 72 | 199 | 5.2 | 12.2 | 0.00 | 0.00 | 0.00 | 61 | 1007.7 |
| 20260506164338 | 72 | 221 | 3.5 | 10.4 | 0.00 | 0.00 | 0.00 | 62 | 1007.7 |
| 20260506163901 | 72 | 174 | 4.3 | 12.2 | 0.00 | 0.00 | 0.00 | 63 | 1007.7 |
| 20260506163424 | 72 | 183 | 7.0 | 13.0 | 0.00 | 0.00 | 0.00 | 62 | 1007.9 |
| 20260506162859 | 72 | 170 | 6.1 | 12.2 | 0.00 | 0.00 | 0.00 | 62 | 1007.8 |
| 20260506162355 | 72 | 180 | 5.2 | 12.2 | 0.00 | 0.00 | 0.00 | 63 | 1007.9 |
| 20260506161830 | 71 | 124 | 5.2 | 12.2 | 0.00 | 0.00 | 0.00 | 63 | 1008.1 |
| 20260506161327 | 71 | 192 | 6.1 | 14.8 | 0.00 | 0.00 | 0.00 | 64 | 1008.1 |
| 20260506160824 | 71 | 147 | 7.8 | 14.8 | 0.00 | 0.00 | 0.00 | 63 | 1008.4 |
| 20260506160357 | 71 | 158 | 6.1 | 13.9 | 0.00 | 0.00 | 0.00 | 63 | 1008.4 |
| 20260506155832 | 71 | 174 | 7.0 | 13.0 | 0.00 | 0.00 | 0.00 | 64 | 1008.5 |
| 20260506155350 | 71 | 199 | 8.7 | 13.9 | 0.00 | 0.00 | 0.00 | 63 | 1008.6 |
| 20260506154847 | 71 | 168 | 7.8 | 13.9 | 0.00 | 0.00 | 0.00 | 63 | 1008.7 |
| 20260506154346 | 71 | 126 | 6.1 | 12.2 | 0.00 | 0.00 | 0.00 | 64 | 1008.8 |
| 20260506153840 | 71 | 184 | 6.1 | 11.3 | 0.00 | 0.00 | 0.00 | 64 | 1009.0 |
| 20260506153317 | 71 | 176 | 7.8 | 13.9 | 0.00 | 0.00 | 0.00 | 64 | 1009.1 |
| 20260506152902 | 71 | 167 | 7.8 | 13.9 | 0.00 | 0.00 | 0.00 | 64 | 1009.1 |
| 20260506152318 | 70 | 201 | 7.8 | 13.9 | 0.00 | 0.00 | 0.00 | 64 | 1009.4 |
| 20260506151817 | 70 | 163 | 7.8 | 15.6 | 0.00 | 0.00 | 0.00 | 64 | 1009.0 |
| 20260506151333 | 70 | 192 | 5.2 | 10.4 | 0.00 | 0.00 | 0.00 | 64 | 1009.0 |
| 20260506150852 | 70 | 210 | 7.0 | 13.0 | 0.00 | 0.00 | 0.00 | 65 | 1009.2 |
| 20260506150413 | 70 | 157 | 6.1 | 13.0 | 0.00 | 0.00 | 0.00 | 65 | 1009.4 |
| 20260506145848 | 70 | 189 | 3.5 | 10.4 | 0.00 | 0.00 | 0.00 | 65 | 1009.4 |
| 20260506145323 | 70 | 191 | 5.2 | 10.4 | 0.00 | 0.00 | 0.00 | 66 | 1009.3 |
| 20260506144923 | 69 | 202 | 6.1 | 15.6 | 0.00 | 0.00 | 0.00 | 66 | 1009.3 |
| 20260506144358 | 70 | 144 | 6.1 | 15.6 | 0.00 | 0.00 | 0.00 | 66 | 1009.2 |
| 20260506143854 | 69 | 138 | 4.3 | 12.2 | 0.00 | 0.00 | 0.00 | 67 | 1009.2 |
| 20260506143329 | 69 | 261 | 3.5 | 13.0 | 0.00 | 0.00 | 0.00 | 66 | 1009.2 |
| 20260506142828 | 69 | 253 | 4.3 | 14.8 | 0.00 | 0.00 | 0.00 | 67 | 1009.1 |
| 20260506142344 | 69 | 165 | 8.7 | 12.2 | 0.00 | 0.00 | 0.00 | 67 | 1008.9 |
| 20260506141841 | 69 | 265 | 6.1 | 14.8 | 0.00 | 0.00 | 0.00 | 68 | 1008.9 |
| 20260506141359 | 69 | 176 | 5.2 | 14.8 | 0.00 | 0.00 | 0.00 | 69 | 1009.1 |
| 20260506140857 | 68 | 227 | 7.0 | 14.8 | 0.00 | 0.00 | 0.00 | 69 | 1009.1 |
| 20260506140331 | 68 | 165 | 5.2 | 13.9 | 0.00 | 0.00 | 0.00 | 69 | 1009.1 |
| 20260506135827 | 67 | 210 | 6.1 | 13.0 | 0.00 | 0.00 | 0.00 | 70 | 1009.0 |
| 20260506135343 | 67 | 206 | 7.8 | 13.0 | 0.00 | 0.00 | 0.00 | 70 | 1009.2 |
| 20260506134819 | 67 | 184 | 4.3 | 9.6 | 0.00 | 0.00 | 0.00 | 70 | 1009.4 |
| 20260506134403 | 67 | 203 | 6.1 | 15.6 | 0.00 | 0.00 | 0.00 | 70 | 1009.4 |
| 20260506133816 | 67 | 201 | 5.2 | 12.2 | 0.00 | 0.00 | 0.00 | 70 | 1009.5 |
| 20260506133334 | 67 | 245 | 6.1 | 12.2 | 0.00 | 0.00 | 0.00 | 70 | 1009.6 |
| 20260506132847 | 66 | 191 | 3.5 | 10.4 | 0.00 | 0.00 | 0.00 | 71 | 1009.6 |
| 20260506132323 | 66 | 257 | 5.2 | 11.3 | 0.00 | 0.00 | 0.00 | 71 | 1009.6 |
| 20260506131839 | 66 | 175 | 4.3 | 11.3 | 0.00 | 0.00 | 0.00 | 70 | 1009.5 |
| 20260506131358 | 66 | 233 | 5.2 | 14.8 | 0.00 | 0.00 | 0.00 | 70 | 1009.4 |
| 20260506130834 | 66 | 181 | 9.6 | 14.8 | 0.00 | 0.00 | 0.00 | 70 | 1009.7 |
| 20260506130330 | 66 | 189 | 6.1 | 10.4 | 0.00 | 0.00 | 0.00 | 70 | 1009.6 |
| 20260506125914 | 66 | 205 | 4.3 | 11.3 | 0.00 | 0.00 | 0.00 | 70 | 1009.7 |
| 20260506125330 | 66 | 191 | 5.2 | 11.3 | 0.00 | 0.00 | 0.00 | 71 | 1009.6 |
| 20260506124847 | 66 | 145 | 7.0 | 10.4 | 0.00 | 0.00 | 0.00 | 71 | 1009.4 |
| 20260506124322 | 66 | 154 | 6.1 | 11.3 | 0.00 | 0.00 | 0.00 | 71 | 1009.4 |
| 20260506123839 | 66 | 177 | 6.1 | 11.3 | 0.00 | 0.00 | 0.00 | 71 | 1009.6 |
| 20260506123337 | 66 | 178 | 4.3 | 11.3 | 0.00 | 0.00 | 0.00 | 71 | 1009.7 |
| 20260506122853 | 65 | 162 | 3.5 | 11.3 | 0.00 | 0.00 | 0.00 | 72 | 1009.7 |
| 20260506122330 | 65 | 202 | 6.1 | 10.4 | 0.00 | 0.00 | 0.00 | 72 | 1009.7 |
| 20260506121826 | 65 | 203 | 4.3 | 10.4 | 0.00 | 0.00 | 0.00 | 72 | 1009.8 |
| 20260506121322 | 65 | 176 | 3.5 | 10.4 | 0.00 | 0.00 | 0.00 | 72 | 1009.7 |
| 20260506120906 | 65 | 169 | 2.6 | 9.6 | 0.00 | 0.00 | 0.00 | 72 | 1009.7 |
| 20260506120337 | 64 | 169 | 3.5 | 9.6 | 0.00 | 0.00 | 0.00 | 72 | 1009.8 |
| 20260506115853 | 64 | 186 | 4.3 | 8.7 | 0.00 | 0.00 | 0.00 | 73 | 1009.8 |
| 20260506115329 | 64 | 144 | 6.1 | 13.0 | 0.00 | 0.00 | 0.00 | 73 | 1009.8 |
| 20260506114842 | 64 | 170 | 5.2 | 13.0 | 0.00 | 0.00 | 0.00 | 73 | 1009.9 |
| 20260506114407 | 64 | 172 | 6.1 | 11.3 | 0.00 | 0.00 | 0.00 | 73 | 1009.9 |
| 20260506113842 | 64 | 144 | 4.3 | 10.4 | 0.00 | 0.00 | 0.00 | 73 | 1010.0 |
| 20260506113359 | 64 | 153 | 5.2 | 9.6 | 0.00 | 0.00 | 0.00 | 73 | 1010.0 |
| 20260506112834 | 64 | 267 | 4.3 | 12.2 | 0.00 | 0.00 | 0.00 | 73 | 1010.0 |
| 20260506112352 | 64 | 191 | 6.1 | 12.2 | 0.00 | 0.00 | 0.00 | 73 | 1010.0 |
| 20260506111828 | 64 | 217 | 3.5 | 10.4 | 0.00 | 0.00 | 0.00 | 73 | 1009.9 |
| 20260506111325 | 63 | 219 | 4.3 | 9.6 | 0.00 | 0.00 | 0.00 | 73 | 1009.8 |
| 20260506110821 | 63 | 212 | 6.1 | 9.6 | 0.00 | 0.00 | 0.00 | 73 | 1010.0 |
| 20260506110338 | 63 | 183 | 6.1 | 10.4 | 0.00 | 0.00 | 0.00 | 73 | 1010.1 |
| 20260506105900 | 63 | 236 | 2.6 | 10.4 | 0.00 | 0.00 | 0.00 | 73 | 1010.2 |
| 20260506105403 | 63 | 196 | 5.2 | 10.4 | 0.00 | 0.00 | 0.00 | 73 | 1010.1 |
| 20260506104901 | 63 | 183 | 6.1 | 10.4 | 0.00 | 0.00 | 0.00 | 73 | 1010.0 |
| 20260506104336 | 63 | 164 | 4.3 | 10.4 | 0.00 | 0.00 | 0.00 | 73 | 1010.0 |
| 20260506103833 | 63 | 178 | 4.3 | 10.4 | 0.00 | 0.00 | 0.00 | 73 | 1010.0 |
| 20260506103350 | 63 | 199 | 5.2 | 11.3 | 0.00 | 0.00 | 0.00 | 73 | 1009.9 |
| 20260506102914 | 63 | 166 | 6.1 | 11.3 | 0.00 | 0.00 | 0.00 | 73 | 1010.1 |
| 20260506102330 | 63 | 186 | 7.0 | 10.4 | 0.00 | 0.00 | 0.00 | 73 | 1009.9 |
| 20260506101827 | 63 | 207 | 4.3 | 9.6 | 0.00 | 0.00 | 0.00 | 73 | 1010.0 |
| 20260506101325 | 63 | 177 | 4.3 | 9.6 | 0.00 | 0.00 | 0.00 | 73 | 1010.1 |
| 20260506100823 | 63 | 163 | 3.5 | 7.0 | 0.00 | 0.00 | 0.00 | 73 | 1010.0 |
| 20260506100318 | 63 | 196 | 3.5 | 8.7 | 0.00 | 0.00 | 0.00 | 73 | 1009.9 |
| 20260506095834 | 62 | 204 | 1.7 | 9.6 | 0.00 | 0.00 | 0.00 | 73 | 1009.8 |
| 20260506095353 | 62 | 122 | 5.2 | 11.3 | 0.00 | 0.00 | 0.00 | 73 | 1009.9 |
| 20260506094917 | 63 | 122 | 2.6 | 11.3 | 0.00 | 0.00 | 0.00 | 73 | 1009.8 |
| 20260506094352 | 63 | 186 | 3.5 | 7.8 | 0.00 | 0.00 | 0.00 | 73 | 1010.0 |
| 20260506093827 | 63 | 180 | 4.3 | 8.7 | 0.00 | 0.00 | 0.00 | 72 | 1010.1 |
| 20260506093345 | 63 | 201 | 2.6 | 8.7 | 0.00 | 0.00 | 0.00 | 72 | 1010.1 |
| 20260506092821 | 63 | 192 | 4.3 | 8.7 | 0.00 | 0.00 | 0.00 | 72 | 1010.1 |
| 20260506092340 | 63 | 189 | 3.5 | 12.2 | 0.00 | 0.00 | 0.00 | 72 | 1010.0 |
| 20260506091835 | 63 | 155 | 5.2 | 7.8 | 0.00 | 0.00 | 0.00 | 72 | 1009.9 |
| 20260506091333 | 63 | 212 | 2.6 | 9.6 | 0.00 | 0.00 | 0.00 | 71 | 1010.0 |
| 20260506090830 | 63 | 195 | 5.2 | 11.3 | 0.00 | 0.00 | 0.00 | 71 | 1010.0 |
| 20260506090326 | 63 | 173 | 4.3 | 8.7 | 0.00 | 0.00 | 0.00 | 71 | 1009.9 |
| 20260506085905 | 63 | 170 | 5.2 | 7.8 | 0.00 | 0.00 | 0.00 | 70 | 1009.9 |
| 20260506085339 | 63 | 235 | 2.6 | 14.8 | 0.00 | 0.00 | 0.00 | 70 | 1009.9 |
| 20260506084904 | 63 | 224 | 7.8 | 14.8 | 0.00 | 0.00 | 0.00 | 70 | 1009.9 |
| 20260506084406 | 64 | 181 | 2.6 | 10.4 | 0.00 | 0.00 | 0.00 | 70 | 1009.9 |
| 20260506083835 | 64 | 186 | 4.3 | 10.4 | 0.00 | 0.00 | 0.00 | 70 | 1009.8 |
| 20260506083332 | 64 | 199 | 4.3 | 9.6 | 0.00 | 0.00 | 0.00 | 69 | 1010.0 |
| 20260506082850 | 64 | 194 | 2.6 | 9.6 | 0.00 | 0.00 | 0.00 | 69 | 1009.9 |
| 20260506082346 | 64 | 146 | 3.5 | 9.6 | 0.00 | 0.00 | 0.00 | 69 | 1009.9 |
| 20260506081842 | 64 | 215 | 4.3 | 9.6 | 0.00 | 0.00 | 0.00 | 69 | 1009.8 |
| 20260506081338 | 64 | 224 | 5.2 | 9.6 | 0.00 | 0.00 | 0.00 | 68 | 1009.8 |
| 20260506080855 | 64 | 232 | 5.2 | 9.6 | 0.00 | 0.00 | 0.00 | 68 | 1009.9 |
| 20260506080328 | 64 | 170 | 4.3 | 13.0 | 0.00 | 0.00 | 0.00 | 68 | 1009.7 |
| 20260506073322 | 65 | 134 | 5.2 | 10.4 | 0.00 | 0.00 | 0.00 | 67 | 1009.4 |
| 20260506072906 | 65 | 170 | 3.5 | 9.6 | 0.00 | 0.00 | 0.00 | 66 | 1009.5 |
| 20260506072321 | 65 | 156 | 1.7 | 13.9 | 0.00 | 0.00 | 0.00 | 66 | 1009.4 |
| 20260506071907 | 65 | 180 | 6.1 | 13.9 | 0.00 | 0.00 | 0.00 | 66 | 1009.5 |
| 20260506071322 | 65 | 212 | 3.5 | 10.4 | 0.00 | 0.00 | 0.00 | 66 | 1009.2 |
| 20260506070906 | 65 | 201 | 4.3 | 10.4 | 0.00 | 0.00 | 0.00 | 65 | 1009.3 |